User: anonymous   Login
Location: Unspecified
(0.0000°N, 0.0000°E)
Time: 07:14:06
(UTC+00:00)
Language:

EO-88 - Orbit

View from above orbital plane
View from above orbital plane
View from above satellite
View from above satellite

Ground track
Ground track

The orbit data is extracted from the following two-line orbital elements,

1 42017U 17008BX  18015.91808991  .00001496  00000-0  64837-4 0  9992
2 42017 097.4692 081.7661 0006385 181.2669 178.8553 15.23946671050878
Epoch (UTC): 15 January 2018 22:02:02
Eccentricity: 0.0006385
inclination: 97.4692°
perigee height: 489 km
apogee height: 498 km
right ascension of ascending node: 81.7661°
argument of perigee: 181.2669°
revolutions per day: 15.23946671
mean anomaly at epoch: 178.8553°
orbit number at epoch: 5087

The dashed part of the orbit path shows where the satellite is in the earth's shadow,  

DLR